CPA852 VHHH-KSEA

Flight info

Callsign CPA852
Flight time N/A
Altitude 37000
Route DALOL V631 ENVAR M750 INVAM/N0483F390 M750 MUKEP Y891 OVSUN/N0485F380 Y893 IGMIS/N0482F390 Y57 POROT Y809 IDLAN Y812 ADNAP OTR5 KALNA DCT KALIG DCT CUTEE DCT CARTO/N0495F410 DCT 50N180E 51N170W 52N160W 53N150W 53N140W DCT MANJO DCT TOU
Aircraft A359/H-SDE2E3GHIJ3J4J5LM1ORWXY/LB1D1

Departure

Time 2026-05-04 11:22
Airport Hong Kong International Airport (VHHH)

Arrival

Time N/A
Airport Seattle–Tacoma International Airport (KSEA)
Time Latitude Longitude Altitude Speed Heading
2026-05-04 10:44 22.31074 113.92550 38 ft 0 kts 116°
2026-05-04 11:08 22.31108 113.92481 36 ft 2 kts 162°
2026-05-04 11:10 22.31136 113.92488 37 ft 0 kts 206°
2026-05-04 11:12 22.31126 113.92482 36 ft 3 kts 208°
2026-05-04 11:12 22.31092 113.92463 38 ft 8 kts 208°
2026-05-04 11:12 22.31040 113.92434 38 ft 9 kts 206°
2026-05-04 11:12 22.30980 113.92402 38 ft 10 kts 205°
2026-05-04 11:13 22.30914 113.92368 38 ft 11 kts 206°
2026-05-04 11:13 22.30844 113.92330 38 ft 11 kts 205°
2026-05-04 11:13 22.30774 113.92339 38 ft 11 kts 164°
2026-05-04 11:13 22.30712 113.92318 38 ft 10 kts 235°
2026-05-04 11:14 22.30702 113.92294 38 ft 10 kts 249°
2026-05-04 11:16 22.30362 113.91240 38 ft 20 kts 251°
2026-05-04 11:16 22.30318 113.91099 38 ft 20 kts 249°
2026-05-04 11:16 22.30270 113.90955 38 ft 21 kts 250°
2026-05-04 11:17 22.30222 113.90805 38 ft 21 kts 250°
2026-05-04 11:17 22.30181 113.90676 38 ft 22 kts 251°
2026-05-04 11:19 22.29797 113.89746 38 ft 11 kts 163°
2026-05-04 11:19 22.29723 113.89773 38 ft 12 kts 161°
2026-05-04 11:19 22.29642 113.89811 36 ft 12 kts 134°
2026-05-04 11:19 22.29638 113.89862 36 ft 0 kts 72°
2026-05-04 11:20 22.29638 113.89863 36 ft 2 kts 72°
2026-05-04 11:20 22.29684 113.90008 36 ft 50 kts 71°
2026-05-04 11:22 22.31989 113.97163 2086 ft 190 kts 72°
2026-05-04 11:22 22.32440 113.98565 2356 ft 202 kts 72°
2026-05-04 11:23 22.32904 114.00020 2766 ft 206 kts 73°
2026-05-04 11:23 22.33379 114.01494 3191 ft 210 kts 72°
2026-05-04 11:24 22.29197 114.08754 5362 ft 242 kts 177°
2026-05-04 11:25 22.27655 114.08791 5683 ft 251 kts 183°
2026-05-04 11:25 22.25779 114.08742 5951 ft 264 kts 184°
2026-05-04 11:25 22.23915 114.08700 6357 ft 271 kts 184°
2026-05-04 11:26 22.20085 114.08648 7290 ft 277 kts 184°
2026-05-04 11:27 22.10690 114.19112 10375 ft 323 kts 123°
2026-05-04 11:28 22.09522 114.21262 10609 ft 335 kts 123°
2026-05-04 11:28 22.08323 114.23469 10840 ft 346 kts 123°
2026-05-04 11:28 22.07081 114.25741 11051 ft 357 kts 123°
2026-05-04 11:28 22.05801 114.28075 11254 ft 367 kts 123°
2026-05-04 11:29 22.04484 114.30463 11509 ft 375 kts 123°
2026-05-04 11:29 22.03136 114.32899 11863 ft 379 kts 124°
2026-05-04 11:29 22.01788 114.35331 12225 ft 383 kts 124°
2026-05-04 11:29 22.00399 114.37835 12594 ft 387 kts 124°
2026-05-04 11:31 21.90598 114.55488 15101 ft 402 kts 124°
2026-05-04 11:33 21.80516 114.73562 17311 ft 418 kts 124°
2026-05-04 11:33 21.79030 114.76223 17647 ft 420 kts 124°
2026-05-04 11:33 21.77505 114.78953 17963 ft 423 kts 124°
2026-05-04 11:34 21.75990 114.81672 18244 ft 426 kts 123°
2026-05-04 11:34 21.74733 114.84594 18461 ft 433 kts 108°
2026-05-04 11:34 21.74233 114.87736 18724 ft 436 kts 96°
2026-05-04 11:34 21.74090 114.91013 18996 ft 439 kts 91°
2026-05-04 11:35 21.74113 114.94359 19260 ft 441 kts 89°
2026-05-04 11:35 21.74191 114.97621 19519 ft 443 kts 89°
2026-05-04 11:35 21.74268 115.00940 19790 ft 444 kts 89°
2026-05-04 11:35 21.74324 115.04272 20038 ft 447 kts 90°
2026-05-04 11:36 21.74354 115.07624 20280 ft 449 kts 90°
2026-05-04 11:36 21.74365 115.10996 20546 ft 450 kts 91°
2026-05-04 11:36 21.74364 115.14356 20792 ft 452 kts 91°
2026-05-04 11:36 21.74357 115.17771 21036 ft 454 kts 91°